SHIYAN 30-03

导读 | 豆包AI

SHIYAN 30-03(NORAD编号68139)是中国研制的试验三十号03星,于北京时间2026年3月13日6时33分,在西昌卫星发射中心由长征二号丁运载火箭发射升空,顺利进入预定轨道,任务取得圆满成功。该卫星和试验三十号04星一同发射,主要用于对地观测技术的试验验证,将为我国后续对地观测领域的技术创新提供实践支撑,推动相关遥感观测技术的成熟与应用落地。此次发射也是长征系列运载火箭的第632次飞行任务。

Basic Information
目录编号:
68139
目录名称:
SHIYAN 30-03
国际标识:
2026-048A
轨道中心:
EARTH
卫星名称:
SHIYAN 30-03
卫星全名:
SHIYAN 30-03
卫星状态:
在轨 (已飞行39 天)
发射日期:
2026-03-12 UTC
国别 :
中国 (CN)
星等 :
--
Orbit Information
数据来源 国际轨道数据 AOE轨道数据
星历时间 2026-04-21T01:39:40+0800
3小时前
查看轨道信息
2026-04-19T03:00:00+0800
2天前
查看轨道信息
半长轴 6970.35km 6970.366km
偏心率 0.0003774 0.0003704
轨道倾角 35.000° 35.001°
近地点辐角 222.961° 209.110°
升交点赤经 252.106° 263.755°
平近点角 137.080° 132.619°
近地点 589.582km 589.647km
远地点 594.844km 594.811km
周期 96.525分钟 96.526分钟
每日圈数 14.918355 14.918302
Detailed Information
使用方式:
暂无
2D Orbit Map
3D Orbit Map
Orbit Altitude Analysis Chart
Orbit Inclination Analysis Chart
Orbit Comprehensive Analysis Chart
View Comprehensive Chart